Weather History for Richmond, KY

Change the Weather History Date:

Monday, May 13, 2013

  Actual Average (KLOZ) Record (KLOZ)
Temperature  
Mean Temperature 50 °F 64 °F  
Max Temperature 62 °F 76 °F 89 °F (1956)
Min Temperature 39 °F 52 °F 34 °F (2013)
Degree Days  
Heating Degree Days 14 3  
Month to date heating degree days 55  
Since 1 July heating degree days 4156  
Cooling Degree Days 0 2  
Month to date cooling degree days 21  
Year to date cooling degree days 47  
Moisture  
Dew Point 32 °F    
Average Humidity 52    
Maximum Humidity 75    
Minimum Humidity 30    
Precipitation  
Precipitation 0.00 in 0.18 in 1.68 in (1983)
Month to date precipitation 2.14  
Year to date precipitation 17.49  
Sea Level Pressure  
Sea Level Pressure 30.17 in    
Wind  
Wind Speed 5 mph (West)    
Max Wind Speed 17 mph    
Max Gust Speed 23 mph    
Visibility 10 miles    
Events      
T = Trace of Precipitation, MM = Missing Value Source: NWS Daily Summary

Daily Weather History Graph

Daily Weather History Graph

Search for Another Location

Airport:

Trip Planner

Search our weather history database for the weather conditions in past years. The results will help you decide how hot, cold, wet, or windy it might be!

Date:

Astronomy

May. 13, 2013 Rise Set
Actual Time 6:29 AM EDT 8:38 PM EDT
Civil Twilight 6:00 AM EDT 9:07 PM EDT
Nautical Twilight 5:24 AM EDT 9:43 PM EDT
Astronomical Twilight 4:45 AM EDT 10:22 PM EDT
Moon 9:14 AM EDT (5/13) 11:47 PM EDT (5/13)
Length of Visible Light 15h 07m
Length of Day
14h 09m
Waxing Crescent, 12% of the Moon is Illuminated
May 13
Waxing Crescent
May 18
First Quarter
May 25
Full
May 31
Last Quarter
Jun 8
New

Hourly Weather History & Observations

Time (EDT) Temp. Windchill Dew Point Humidity Pressure Visibility Wind Dir Wind Speed Gust Speed Precip Events Conditions
12:15 AM 42.8 °F - 33.8 °F 70% 30.15 in 10.0 mi Calm Calm - N/A   Clear
12:35 AM 42.8 °F - 33.8 °F 70% 30.15 in 10.0 mi Calm Calm - N/A   Clear
12:55 AM 42.8 °F 41.1 °F 32.0 °F 66% 30.15 in 10.0 mi West 3.5 mph - N/A   Clear
1:15 AM 44.6 °F 42.2 °F 32.0 °F 61% 30.15 in 10.0 mi West 4.6 mph - N/A   Clear
1:35 AM 42.8 °F 40.1 °F 32.0 °F 66% 30.15 in 10.0 mi West 4.6 mph - N/A   Clear
1:55 AM 42.8 °F 40.1 °F 32.0 °F 66% 30.15 in 10.0 mi WSW 4.6 mph - N/A   Clear
2:15 AM 42.8 °F 41.1 °F 32.0 °F 66% 30.15 in 10.0 mi WSW 3.5 mph - N/A   Clear
2:35 AM 42.8 °F 40.1 °F 32.0 °F 66% 30.14 in 10.0 mi West 4.6 mph - N/A   Clear
2:55 AM 42.8 °F 41.1 °F 32.0 °F 66% 30.14 in 10.0 mi West 3.5 mph - N/A   Clear
3:15 AM 42.8 °F 41.1 °F 32.0 °F 66% 30.14 in 10.0 mi WSW 3.5 mph - N/A   Clear
3:35 AM 42.8 °F 40.1 °F 32.0 °F 66% 30.14 in 10.0 mi WSW 4.6 mph - N/A   Clear
3:55 AM 41.0 °F 39.0 °F 32.0 °F 70% 30.14 in 10.0 mi WSW 3.5 mph - N/A   Clear
4:15 AM 41.0 °F 39.0 °F 32.0 °F 70% 30.14 in 10.0 mi WSW 3.5 mph - N/A   Clear
4:35 AM 41.0 °F 39.0 °F 32.0 °F 70% 30.14 in 10.0 mi SW 3.5 mph - N/A   Clear
4:55 AM 41.0 °F 38.0 °F 32.0 °F 70% 30.14 in 10.0 mi WSW 4.6 mph - N/A   Clear
5:15 AM 41.0 °F 39.0 °F 32.0 °F 70% 30.15 in 10.0 mi WSW 3.5 mph - N/A   Clear
5:35 AM 41.0 °F 38.0 °F 32.0 °F 70% 30.14 in 10.0 mi WSW 4.6 mph - N/A   Clear
5:55 AM 41.0 °F 39.0 °F 32.0 °F 70% 30.15 in 10.0 mi WSW 3.5 mph - N/A   Clear
6:15 AM 41.0 °F 39.0 °F 32.0 °F 70% 30.15 in 10.0 mi WSW 3.5 mph - N/A   Clear
6:35 AM 39.2 °F 37.0 °F 32.0 °F 75% 30.15 in 10.0 mi WSW 3.5 mph - N/A   Clear
6:55 AM 39.2 °F 35.9 °F 32.0 °F 75% 30.16 in 10.0 mi WSW 4.6 mph - N/A   Clear
7:15 AM 41.0 °F 39.0 °F 32.0 °F 70% 30.17 in 10.0 mi WSW 3.5 mph - N/A   Clear
7:35 AM 41.0 °F 39.0 °F 32.0 °F 70% 30.17 in 10.0 mi WSW 3.5 mph - N/A   Clear
7:55 AM 42.8 °F 40.1 °F 33.8 °F 70% 30.18 in 10.0 mi West 4.6 mph - N/A   Clear
8:15 AM 44.6 °F 42.2 °F 33.8 °F 66% 30.18 in 10.0 mi West 4.6 mph - N/A   Clear
8:35 AM 46.4 °F 43.5 °F 35.6 °F 66% 30.19 in 10.0 mi West 5.8 mph - N/A   Clear
8:55 AM 48.2 °F - 35.6 °F 62% 30.20 in 10.0 mi West 5.8 mph - N/A   Clear
9:15 AM 48.2 °F - 35.6 °F 62% 30.20 in 10.0 mi West 6.9 mph - N/A   Clear
9:35 AM 50.0 °F - 35.6 °F 58% 30.21 in 10.0 mi West 6.9 mph - N/A   Clear
9:55 AM 53.6 °F - 35.6 °F 51% 30.22 in 10.0 mi WNW 4.6 mph - N/A   Clear
10:15 AM 53.6 °F - 32.0 °F 44% 30.22 in 10.0 mi WNW 8.1 mph - N/A   Clear
10:35 AM 53.6 °F - 30.2 °F 41% 30.22 in 10.0 mi NW 8.1 mph 17.3 mph N/A   Clear
10:55 AM 55.4 °F - 30.2 °F 38% 30.22 in 10.0 mi West 6.9 mph - N/A   Scattered Clouds
11:15 AM 55.4 °F - 30.2 °F 38% 30.22 in 10.0 mi WNW 11.5 mph 20.7 mph N/A   Scattered Clouds
11:35 AM 55.4 °F - 30.2 °F 38% 30.22 in 10.0 mi NW 8.1 mph - N/A   Clear
11:55 AM 57.2 °F - 28.4 °F 33% 30.22 in 10.0 mi NW 13.8 mph 17.3 mph N/A   Clear
12:15 PM 57.2 °F - 28.4 °F 33% 30.22 in 10.0 mi NW 10.4 mph - N/A   Scattered Clouds
12:35 PM 57.2 °F - 28.4 °F 33% 30.22 in 10.0 mi WNW 11.5 mph - N/A   Scattered Clouds
12:55 PM 57.2 °F - 30.2 °F 36% 30.21 in 10.0 mi WNW 11.5 mph 19.6 mph N/A   Scattered Clouds
1:15 PM 57.2 °F - 30.2 °F 36% 30.21 in 10.0 mi West 9.2 mph 20.7 mph N/A   Scattered Clouds
1:35 PM 59.0 °F - 32.0 °F 36% 30.20 in 10.0 mi West 11.5 mph 18.4 mph N/A   Scattered Clouds
1:55 PM 59.0 °F - 32.0 °F 36% 30.20 in 10.0 mi West 11.5 mph 17.3 mph N/A   Scattered Clouds
2:15 PM 59.0 °F - 32.0 °F 36% 30.19 in 10.0 mi NW 9.2 mph - N/A   Scattered Clouds
2:35 PM 60.8 °F - 32.0 °F 34% 30.19 in 10.0 mi WNW 13.8 mph 20.7 mph N/A   Scattered Clouds
2:55 PM 60.8 °F - 30.2 °F 31% 30.18 in 10.0 mi NW 8.1 mph - N/A   Scattered Clouds
3:15 PM 60.8 °F - 33.8 °F 36% 30.18 in 10.0 mi WNW 12.7 mph 17.3 mph N/A   Scattered Clouds
3:35 PM 60.8 °F - 30.2 °F 31% 30.17 in 10.0 mi NW 13.8 mph 23.0 mph N/A   Scattered Clouds
4:35 PM 60.8 °F - 30.2 °F 31% 30.16 in 10.0 mi WNW 6.9 mph 18.4 mph N/A   Mostly Cloudy
4:55 PM 62.6 °F - 32.0 °F 32% 30.16 in 10.0 mi WNW 15.0 mph 19.6 mph N/A   Scattered Clouds
5:15 PM 60.8 °F - 32.0 °F 34% 30.15 in 10.0 mi West 17.3 mph 23.0 mph N/A   Scattered Clouds
5:35 PM 59.0 °F - 30.2 °F 34% 30.15 in 10.0 mi WNW 6.9 mph - N/A   Scattered Clouds
5:55 PM 60.8 °F - 30.2 °F 31% 30.15 in 10.0 mi West 8.1 mph - N/A   Scattered Clouds
6:15 PM 62.6 °F - 30.2 °F 30% 30.14 in 10.0 mi WNW 16.1 mph 23.0 mph N/A   Scattered Clouds
6:35 PM 60.8 °F - 32.0 °F 34% 30.14 in 10.0 mi WNW 10.4 mph - N/A   Clear
6:55 PM 59.0 °F - 30.2 °F 34% 30.14 in 10.0 mi NW 9.2 mph - N/A   Scattered Clouds
7:35 PM 59.0 °F - 32.0 °F 36% 30.14 in 10.0 mi WNW 6.9 mph - N/A   Scattered Clouds
8:15 PM 57.2 °F - 32.0 °F 38% 30.14 in 10.0 mi WNW 4.6 mph - N/A   Clear
8:35 PM 57.2 °F - 32.0 °F 38% 30.15 in 10.0 mi Calm Calm - N/A   Clear
8:55 PM 55.4 °F - 32.0 °F 41% 30.15 in 10.0 mi WSW 4.6 mph - N/A   Clear
9:15 PM 55.4 °F - 32.0 °F 41% 30.16 in 10.0 mi West 3.5 mph - N/A   Clear
9:35 PM 55.4 °F - 32.0 °F 41% 30.17 in 10.0 mi WSW 3.5 mph - N/A   Clear
9:55 PM 55.4 °F - 33.8 °F 44% 30.17 in 10.0 mi Calm Calm - N/A   Clear
10:15 PM 53.6 °F - 35.6 °F 51% 30.18 in 10.0 mi SW 3.5 mph - N/A   Clear
10:35 PM 50.0 °F - 35.6 °F 58% 30.18 in 10.0 mi SSW 4.6 mph - N/A   Clear
10:55 PM 51.8 °F - 35.6 °F 54% 30.18 in 10.0 mi SSW 4.6 mph - N/A   Clear
11:15 PM 50.0 °F - 35.6 °F 58% 30.18 in 10.0 mi South 4.6 mph - N/A   Clear
11:35 PM 48.2 °F - 37.4 °F 66% 30.18 in 10.0 mi Calm Calm - N/A   Clear
11:55 PM 46.4 °F - 37.4 °F 71% 30.18 in 10.0 mi Calm Calm - N/A   Clear